Location: Chillicothe
(39.7950°N, 93.5520°W)
Time: 02:29:35
(UTC-06:00)

Vanguard 3 - Pass Details

Date: 28 October 2019
Orbit: 508 x 3263 km, 33.3° (Epoch: 11 November)

Event Time Altitude Azimuth Distance (km) Brightness Sun altitude
Rises 21:11:33 0° 230° (SW) 4,996 11.7 -34.0°
Reaches altitude 10° 21:16:01 10° 221° (SW) 3,495 10.6 -34.8°
Enters shadow 21:19:56 22° 200° (SSW) 2,287 9.4 -35.6°
